Weather History for Marathon, FL

Change the Weather History Date:

Sunday, July 1, 2012

  Actual Average Record
Temperature  
Mean Temperature 86 °F 85 °F  
Max Temperature 90 °F 91 °F 93 °F (2010)
Min Temperature 81 °F 79 °F 75 °F (2000)
Degree Days  
Heating Degree Days 0 0  
Month to date heating degree days 0 0  
Since 1 June heating degree days 0 0  
Since 1 July heating degree days 0 0  
Cooling Degree Days 21 20  
Month to date cooling degree days 21 20  
Year to date cooling degree days 2418 2157  
Since 1 June cooling degree days 579 614  
Growing Degree Days 35 (Base 50)    
Moisture  
Dew Point 74 °F    
Average Humidity 69    
Maximum Humidity 79    
Minimum Humidity 59    
Precipitation  
Precipitation 0.05 in 0.16 in 0.76 in (2014)
Month to date precipitation 0.05 0.16  
Year to date precipitation 26.52 17.71  
Snow  
Snow 0.00 in - - ()
Month to date snowfall 0.0  
Since 1 June snowfall 0.0  
Since 1 July snowfall 0.0  
Snow Depth 0.00 in    
Sea Level Pressure  
Sea Level Pressure 30.05 in    
Wind  
Wind Speed 4 mph (SE)    
Max Wind Speed 9 mph    
Max Gust Speed 15 mph    
Visibility 9 miles    
Events Rain , Thunderstorm    
T = Trace of Precipitation, MM = Missing Value Source: NWS Daily Summary

Daily Weather History Graph

Daily Weather History Graph

Search for Another Location

Airport:

Trip Planner

Search our weather history database for the weather conditions in past years. The results will help you decide how hot, cold, wet, or windy it might be!

Date:

Astronomy

Jul. 01, 2012 Rise Set
Actual Time 6:38 AM EDT 8:17 PM EDT
Civil Twilight 6:13 AM EDT 8:43 PM EDT
Nautical Twilight 5:42 AM EDT 9:13 PM EDT
Astronomical Twilight 5:10 AM EDT 9:45 PM EDT
Moon 6:20 PM EDT (7/1) 4:21 AM EDT (7/1)
Length of Visible Light 14h 29m
Length of Day
13h 38m
Waxing Gibbous, 94% of the Moon is Illuminated
Jul 1
Waxing Gibbous
Jul 3
Full
Jul 10
Last Quarter
Jul 19
New
Jul 26
First Quarter

Hourly Weather History & Observations

Time (EDT) Temp. Heat Index Dew Point Humidity Pressure Visibility Wind Dir Wind Speed Gust Speed Precip Events Conditions
12:53 AM 82.0 °F 87.9 °F 73.9 °F 76% 30.02 in 10.0 mi Calm Calm - N/A   Clear
1:21 AM 82.4 °F 89.5 °F 75.2 °F 79% 30.02 in 10.0 mi Calm Calm - N/A   Mostly Cloudy
1:28 AM 82.4 °F 89.5 °F 75.2 °F 79% 30.02 in 10.0 mi SSE 3.5 mph - N/A   Scattered Clouds
2:53 AM 82.0 °F 87.9 °F 73.9 °F 76% 30.00 in 10.0 mi SSE 3.5 mph - N/A   Clear
3:53 AM 82.0 °F 87.9 °F 73.9 °F 76% 30.01 in 10.0 mi SSE 4.6 mph - N/A   Clear
4:40 AM 82.4 °F 88.2 °F 73.4 °F 74% 30.02 in 10.0 mi Variable 3.5 mph - N/A Thunderstorm Clear
4:53 AM 82.0 °F 87.9 °F 73.9 °F 76% 30.02 in 10.0 mi SSE 3.5 mph - N/A Thunderstorm Clear
5:04 AM 82.4 °F 88.2 °F 73.4 °F 74% 30.02 in 10.0 mi Calm Calm - N/A   Clear
5:53 AM 82.0 °F 86.7 °F 72.0 °F 71% 30.03 in 10.0 mi NE 5.8 mph - N/A   Mostly Cloudy
6:04 AM 82.4 °F 86.3 °F 69.8 °F 66% 30.03 in 10.0 mi ENE 4.6 mph - N/A   Mostly Cloudy
6:53 AM 81.0 °F 85.2 °F 72.0 °F 74% 30.04 in 10.0 mi Calm Calm - N/A   Clear
8:53 AM 86.0 °F 93.8 °F 73.9 °F 67% 30.07 in 10.0 mi Calm Calm - N/A   Partly Cloudy
9:53 AM 87.1 °F 95.4 °F 73.9 °F 65% 30.08 in 10.0 mi SSE 4.6 mph - N/A   Partly Cloudy
10:29 AM 82.4 °F 89.5 °F 75.2 °F 79% 30.09 in 1.5 mi Calm Calm - 0.04 in Rain Rain
10:36 AM 84.2 °F 94.1 °F 77.0 °F 79% 30.09 in 2.5 mi Calm Calm - 0.05 in Rain Light Rain
10:38 AM 84.2 °F 94.1 °F 77.0 °F 79% 30.09 in 3.0 mi Calm Calm - 0.05 in Rain Light Rain
10:53 AM 86.0 °F 96.0 °F 75.9 °F 72% 30.09 in 10.0 mi SE 4.6 mph - 0.05 in   Scattered Clouds
11:53 AM 88.0 °F 98.5 °F 75.9 °F 67% 30.10 in 10.0 mi SE 4.6 mph - N/A   Clear
12:53 PM 89.1 °F 98.0 °F 73.9 °F 61% 30.09 in 10.0 mi SSE 5.8 mph - N/A   Clear
1:53 PM 89.1 °F 99.1 °F 75.0 °F 63% 30.09 in 10.0 mi SE 5.8 mph - N/A   Clear
2:53 PM 89.1 °F 99.1 °F 75.0 °F 63% 30.08 in 10.0 mi SE 6.9 mph - N/A   Partly Cloudy
3:53 PM 88.0 °F 97.5 °F 75.0 °F 65% 30.06 in 10.0 mi Variable 6.9 mph - N/A   Partly Cloudy
4:53 PM 88.0 °F 96.5 °F 73.9 °F 63% 30.05 in 10.0 mi SSE 5.8 mph - N/A   Partly Cloudy
5:53 PM 88.0 °F 95.6 °F 73.0 °F 61% 30.05 in 10.0 mi ESE 5.8 mph - N/A   Clear
6:53 PM 86.0 °F 93.0 °F 73.0 °F 65% 30.04 in 10.0 mi East 5.8 mph - N/A   Clear
7:53 PM 84.9 °F 92.1 °F 73.9 °F 69% 30.05 in 10.0 mi ESE 4.6 mph - N/A   Clear
8:53 PM 84.0 °F 91.2 °F 73.9 °F 72% 30.04 in 10.0 mi SE 4.6 mph - N/A   Clear
9:53 PM 84.0 °F 91.2 °F 73.9 °F 72% 30.04 in 10.0 mi Variable 4.6 mph - N/A   Clear
10:53 PM 84.0 °F 91.2 °F 73.9 °F 72% 30.05 in 10.0 mi Variable 4.6 mph - N/A   Clear
11:53 PM 84.0 °F 91.2 °F 73.9 °F 72% 30.07 in 10.0 mi ESE 5.8 mph - N/A   Scattered Clouds